[[{"header":{"parameterUnit":"m.s-1","parameterCategory":1,"la1":30.2991,"la2":30.254,"lo1":-89.0895,"lo2":-89.0444,"dy":0.0017,"dx":0.0017,"nx":28,"ny":28,"refTime":"2023-09-19T21:00:00:Z","depth":0,"parameterNumber":2,"parameterNumberName":"U-component_of_WINDS"},"data":[0,0,0,0,0,0,0,0,0,0,0,0,0,0,0,0,0,0,0,0,0,0,0,0,0,0,0,0,0,0,0,0,0,0,0,0,0,0,0,0,0,0,0,0,0,0,0,0,0,0,0,0,0,0,0,0,0,0,-1.7496,-1.7496,0,-1.7476,-1.7476,-1.7476,-1.7426,-1.7424,-1.7423,-1.7422,-1.7403,-1.7403,-1.7404,0,0,0,0,0,0,0,0,0,0,0,0,0,-1.7494,-1.7495,-1.7497,-1.7496,-1.7496,-1.7476,-1.7476,-1.7476,-1.7426,-1.7424,-1.7423,-1.7422,-1.7403,-1.7403,-1.7404,0,0,0,0,0,0,0,0,0,0,0,0,0,-1.7487,-1.7495,-1.7497,-1.7469,-1.7466,-1.7476,-1.7476,-1.7475,-1.7426,-1.7424,-1.7423,-1.7421,-1.7403,-1.7403,-1.7404,-1.744,0,0,-1.7406,-1.7406,0,0,0,0,0,0,0,0,-1.7487,-1.7487,-1.7473,-1.7471,-1.7468,-1.7452,-1.7468,-1.7464,-1.7426,-1.7441,-1.7422,-1.7421,-1.7421,-1.742,-1.7419,-1.7439,-1.7438,-1.7406,-1.7407,-1.7407,-1.7407,0,0,0,0,0,0,0,-1.7488,-1.7488,-1.7488,-1.7473,-1.747,-1.7458,-1.7455,-1.7467,-1.744,-1.744,-1.7436,-1.7434,-1.7419,-1.7419,-1.7418,-1.7438,-1.7406,-1.7407,-1.7407,-1.7407,-1.7486,-1.7488,0,0,0,0,0,0,-1.7492,-1.7488,-1.7489,-1.7488,-1.7474,-1.7459,-1.7456,-1.7458,-1.744,-1.7435,-1.7436,-1.7432,-1.7418,-1.7418,-1.7418,-1.7458,-1.7407,-1.7408,-1.7408,-1.7485,-1.7487,-1.7489,0,0,0,0,0,0,-1.7492,-1.7493,-1.749,-1.7487,-1.7486,-1.7461,-1.7464,-1.7459,-1.7459,-1.7437,-1.7432,-1.744,-1.7417,-1.7417,-1.7435,-1.7457,-1.7408,-1.7408,-1.7483,-1.7485,-1.7488,-1.754,0,0,0,0,0,0,-1.7492,-1.7493,-1.7506,-1.7488,-1.7486,-1.7507,-1.7465,-1.746,-1.746,-1.7455,-1.744,-1.7436,-1.7416,-1.7434,-1.7435,-1.7457,-1.7409,-1.7481,-1.7484,-1.7487,-1.7536,-1.7544,-1.7551,0,0,0,0,0,-1.7493,-1.7522,-1.7507,-1.7507,-1.7502,-1.7508,-1.7507,-1.7483,-1.7462,-1.7475,-1.7461,-1.7436,-1.7455,-1.7436,-1.7437,-1.746,-1.7479,-1.7483,-1.7487,-1.7533,-1.7543,-1.7551,0,0,0,0,0,0,-1.7544,-1.7519,-1.7502,-1.7526,-1.752,-1.75,-1.7515,-1.7494,-1.7494,-1.7489,-1.746,-1.7457,-1.7479,-1.7471,-1.7451,-1.7494,-1.7463,-1.7467,-1.7498,-1.7507,-1.7514,-1.7515,-1.741,0,0,0,0,0,-1.7558,-1.7564,-1.7543,-1.7566,-1.7564,-1.754,-1.7542,-1.7524,-1.7517,-1.7514,-1.7501,-1.7495,-1.7499,-1.7503,-1.7505,-1.7535,-1.7531,-1.7551,-1.7559,-1.7565,-1.7569,-1.7584,-1.7592,-1.7501,-1.7501,-1.7501,0,0,-1.7587,-1.7574,-1.758,-1.7576,-1.7569,-1.7577,-1.7538,-1.7549,-1.7555,-1.7516,-1.7531,-1.7522,-1.7514,-1.7538,-1.7548,-1.7532,-1.7593,-1.757,-1.7575,-1.7575,-1.7589,-1.7597,-1.7605,-1.7504,-1.7503,-1.7503,0,0,-1.7643,-1.7635,-1.7653,-1.7647,-1.7636,-1.7621,-1.7626,-1.7609,-1.7601,-1.7617,-1.7588,-1.7595,-1.7603,-1.7598,-1.7597,-1.7653,-1.763,-1.7655,-1.7693,-1.7708,-1.7715,-1.7721,-1.7741,-1.7749,-1.7659,-1.7659,-1.7659,0,-1.7681,-1.7691,-1.7665,-1.7678,-1.7677,-1.7642,-1.7661,-1.7656,-1.7648,-1.7648,-1.763,-1.764,-1.7632,-1.7654,-1.7668,-1.7668,-1.7673,-1.7656,-1.7716,-1.7722,-1.7728,-1.7746,-1.7754,-1.7662,-1.7662,-1.7661,-1.7661,0,-1.7738,-1.7746,-1.7762,-1.7754,-1.7756,-1.7771,-1.7748,-1.7753,-1.7735,-1.7722,-1.7739,-1.7728,-1.7728,-1.7732,-1.7715,-1.7752,-1.7743,-1.7721,-1.769,-1.774,-1.7757,-1.7764,-1.7666,-1.7665,-1.7664,-1.7664,0,0,-1.7825,-1.7803,-1.781,-1.7806,-1.7792,-1.7798,-1.7813,-1.7812,-1.7817,-1.7813,-1.7824,-1.7832,-1.7812,-1.7811,-1.7793,-1.7807,-1.7852,-1.7783,-1.7783,-1.7796,-1.7892,-1.7908,-1.7917,-1.7837,-1.7839,-1.784,-1.7893,0,-1.7878,-1.79,-1.7878,-1.7905,-1.7912,-1.788,-1.7893,-1.7886,-1.7875,-1.7879,-1.7867,-1.7873,-1.7846,-1.7845,-1.7857,-1.7844,-1.7871,-1.784,-1.7848,-1.7848,-1.785,-1.7926,-1.7942,-1.7993,-1.7899,-1.7901,-1.7901,0,-1.7943,-1.7941,-1.7969,-1.7954,-1.7956,-1.7968,-1.7966,-1.7971,-1.7963,-1.7954,-1.7953,-1.7932,-1.7945,-1.7915,-1.7934,-1.7914,-1.7916,-1.791,-1.7912,-1.7911,-1.7877,-1.7926,-1.8008,-1.8016,-1.7912,-1.7911,-1.791,0,-1.8003,-1.8008,-1.8025,-1.8023,-1.8006,-1.8015,-1.8009,-1.7999,-1.8001,-1.8,-1.8,-1.8001,-1.8001,-1.8003,-1.7983,-1.7963,-1.8004,-1.7972,-1.7997,-1.7997,-1.8006,-1.8005,-1.8089,-1.8009,-1.8009,-1.8009,-1.8009,0,-1.8064,-1.8082,-1.8052,-1.8062,-1.8082,-1.8057,-1.8077,-1.8068,-1.806,-1.8068,-1.8041,-1.805,-1.8023,-1.8029,-1.8014,-1.8032,-1.8032,-1.8025,-1.8021,-1.8027,-1.8028,-1.8027,-1.8023,-1.8011,-1.801,-1.801,-1.8009,0,-1.8134,-1.8115,-1.8131,-1.8114,-1.811,-1.8126,-1.8111,-1.8121,-1.8107,-1.8119,-1.812,-1.8099,-1.8105,-1.8086,-1.8089,-1.8078,-1.8104,-1.8094,-1.8107,-1.8103,-1.8129,-1.8126,-1.8214,-1.8224,-1.8138,-1.8139,-1.814,0,-1.8174,-1.8187,-1.8172,-1.8175,-1.817,-1.8176,-1.8177,-1.8153,-1.8156,-1.8149,-1.8159,-1.8163,-1.8164,-1.8176,-1.8161,-1.8164,-1.8153,-1.8184,-1.8153,-1.8159,-1.8153,-1.8152,-1.8153,-1.819,-1.8191,-1.8192,-1.8192,0,-1.8247,-1.8237,-1.8239,-1.8239,-1.8241,-1.8239,-1.8236,-1.8241,-1.8215,-1.822,-1.8225,-1.8226,-1.8229,-1.8233,-1.8233,-1.8227,-1.8206,-1.8202,-1.8208,-1.8214,-1.8221,-1.8217,-1.8123,-1.82,-1.8199,-1.8199,-1.8198,-1.8198,-1.8303,-1.8313,-1.8304,-1.8307,-1.8302,-1.83,-1.8308,-1.8296,-1.83,-1.83,-1.8286,-1.8294,-1.8287,-1.8284,-1.828,-1.8287,-1.8273,-1.8281,-1.8283,-1.8285,-1.8289,-1.822,-1.8287,-1.8287,-1.8286,-1.8286,-1.8286,0,-1.8374,-1.8366,-1.837,-1.8366,-1.8369,-1.8349,-1.8345,-1.8349,-1.8357,-1.8351,-1.8353,-1.836,-1.8364,-1.8351,-1.8353,-1.8361,-1.8351,-1.8362,-1.8361,-1.836,-1.8302,-1.8297,-1.837,-1.837,-1.837,-1.837,-1.837,-1.837,-1.8411,-1.8427,-1.8416,-1.843,-1.8422,-1.843,-1.8429,-1.8427,-1.8423,-1.8431,-1.8434,-1.8425,-1.8417,-1.8418,-1.8421,-1.8417,-1.8419,-1.8433,-1.8426,-1.8372,-1.8364,-1.8356,-1.8351,-1.8434,-1.8434,-1.8483,-1.8483,-1.8484]},{"header":{"parameterUnit":"m.s-1","parameterCategory":1,"la1":30.2991,"la2":30.254,"lo1":-89.0895,"lo2":-89.0444,"dy":0.0017,"dx":0.0017,"nx":28,"ny":28,"refTime":"2023-09-19T21:00:00:Z","depth":0,"parameterNumber":3,"parameterNumberName":"V-component_of_WINDS"},"data":[0,0,0,0,0,0,0,0,0,0,0,0,0,0,0,0,0,0,0,0,0,0,0,0,0,0,0,0,0,0,0,0,0,0,0,0,0,0,0,0,0,0,0,0,0,0,0,0,0,0,0,0,0,0,0,0,0,0,2.5933,2.5933,0,2.5925,2.5925,2.5925,2.5939,2.594,2.594,2.594,2.5929,2.5928,2.5928,0,0,0,0,0,0,0,0,0,0,0,0,0,2.5955,2.5955,2.5933,2.5933,2.5933,2.5925,2.5925,2.5925,2.5939,2.594,2.594,2.5941,2.5929,2.5928,2.5928,0,0,0,0,0,0,0,0,0,0,0,0,0,2.5946,2.5955,2.5933,2.5939,2.5939,2.5925,2.5925,2.5925,2.5939,2.594,2.594,2.5941,2.593,2.5929,2.5927,2.5907,0,0,2.5924,2.5924,0,0,0,0,0,0,0,0,2.5947,2.5945,2.5938,2.5938,2.5939,2.5934,2.5929,2.5919,2.5939,2.5939,2.594,2.5941,2.593,2.5929,2.5926,2.5906,2.5905,2.5924,2.5923,2.5923,2.5923,0,0,0,0,0,0,0,2.5947,2.5946,2.593,2.5938,2.5938,2.5941,2.594,2.5927,2.593,2.5939,2.594,2.5939,2.593,2.5927,2.5926,2.5905,2.5924,2.5923,2.5922,2.5922,2.5867,2.5866,0,0,0,0,0,0,2.5948,2.5946,2.593,2.593,2.5945,2.594,2.5939,2.5935,2.5931,2.5931,2.5938,2.594,2.5928,2.5927,2.5925,2.59,2.5923,2.5922,2.5921,2.5868,2.5867,2.5866,0,0,0,0,0,0,2.5948,2.5946,2.593,2.5938,2.5936,2.5938,2.5933,2.5934,2.5931,2.593,2.5931,2.5935,2.5929,2.5927,2.5911,2.5899,2.5921,2.592,2.5869,2.5867,2.5866,2.5849,0,0,0,0,0,0,2.5949,2.5946,2.5939,2.5938,2.5936,2.5917,2.5933,2.5934,2.5929,2.5931,2.5927,2.5927,2.5929,2.5913,2.591,2.5898,2.5919,2.587,2.5868,2.5867,2.585,2.5847,2.5844,0,0,0,0,0,2.595,2.5934,2.5939,2.5937,2.5927,2.5917,2.5915,2.592,2.5928,2.5921,2.592,2.5927,2.5902,2.5911,2.5908,2.5896,2.587,2.5869,2.5867,2.5852,2.5848,2.5844,0,0,0,0,0,0,2.5932,2.5934,2.5939,2.5923,2.592,2.5919,2.5909,2.5915,2.5909,2.591,2.5915,2.5914,2.5897,2.5895,2.5906,2.5875,2.5887,2.5885,2.5877,2.5873,2.587,2.587,2.5919,0,0,0,0,0,2.5927,2.5919,2.592,2.5906,2.5904,2.5907,2.5902,2.5906,2.5903,2.5901,2.5899,2.5895,2.5885,2.5879,2.5871,2.585,2.5849,2.5841,2.5838,2.5835,2.5832,2.582,2.5816,2.586,2.586,2.586,0,0,2.5915,2.5915,2.5909,2.5902,2.59,2.5891,2.5906,2.5895,2.5888,2.5899,2.5884,2.5883,2.5878,2.5859,2.5851,2.5857,2.582,2.5833,2.5831,2.5829,2.5818,2.5814,2.581,2.5859,2.5859,2.5859,0,0,2.5888,2.5888,2.5875,2.5873,2.587,2.5872,2.5869,2.5868,2.5868,2.5854,2.5861,2.5852,2.5837,2.5833,2.5828,2.58,2.5806,2.5798,2.5781,2.5769,2.5766,2.5763,2.5751,2.5747,2.5795,2.5795,2.5795,0,2.5873,2.5861,2.5868,2.5857,2.5853,2.5864,2.585,2.5848,2.5842,2.5838,2.5846,2.5826,2.5824,2.5804,2.5797,2.5794,2.5789,2.5797,2.5766,2.5763,2.576,2.5749,2.5745,2.5794,2.5794,2.5794,2.5794,0,2.5842,2.5833,2.5823,2.5818,2.5813,2.5801,2.5805,2.5799,2.5804,2.5805,2.5789,2.5787,2.5778,2.5774,2.5777,2.5754,2.5758,2.5766,2.5778,2.5755,2.5745,2.5741,2.5793,2.5793,2.5793,2.5794,0,0,2.5802,2.5803,2.5799,2.5796,2.5794,2.5787,2.5775,2.5768,2.5762,2.5757,2.5746,2.5733,2.5741,2.5736,2.5739,2.5729,2.5705,2.5738,2.5738,2.5731,2.5678,2.5671,2.5666,2.571,2.5709,2.5708,2.5678,0,2.5775,2.5756,2.5762,2.5742,2.5733,2.5743,2.5733,2.573,2.573,2.5722,2.5722,2.5713,2.5724,2.5721,2.5711,2.571,2.5695,2.5713,2.5698,2.5697,2.5697,2.5661,2.5654,2.5626,2.5674,2.5674,2.5673,0,2.574,2.5736,2.5715,2.5714,2.5711,2.5701,2.5694,2.5687,2.5683,2.5685,2.568,2.5685,2.5672,2.5685,2.5666,2.5678,2.5673,2.5671,2.567,2.5668,2.5683,2.5656,2.5617,2.5612,2.5667,2.5668,2.5668,0,2.5712,2.5701,2.5687,2.5685,2.5684,2.5677,2.5676,2.5673,2.5668,2.5662,2.5658,2.565,2.5645,2.5638,2.5641,2.5651,2.5621,2.5635,2.562,2.562,2.5612,2.5612,2.5569,2.5611,2.5611,2.5611,2.5611,0,2.568,2.5666,2.5674,2.5665,2.565,2.5657,2.5642,2.5642,2.5639,2.5629,2.5638,2.5628,2.5633,2.5624,2.5626,2.5609,2.5607,2.5606,2.5606,2.5604,2.5604,2.56,2.5601,2.561,2.561,2.561,2.561,0,2.5645,2.565,2.5635,2.5636,2.5636,2.5625,2.5625,2.5616,2.5618,2.5605,2.5603,2.5605,2.5594,2.5596,2.5584,2.5585,2.5564,2.5567,2.5565,2.5565,2.555,2.555,2.5501,2.5494,2.5542,2.5541,2.5541,0,2.5624,2.5614,2.5614,2.5609,2.5607,2.5599,2.5594,2.56,2.5595,2.559,2.5581,2.5572,2.5564,2.5546,2.5545,2.5536,2.5538,2.5522,2.5537,2.5535,2.5536,2.5536,2.5534,2.5518,2.5517,2.5517,2.5517,0,2.5585,2.5588,2.5581,2.5575,2.557,2.5565,2.5561,2.5556,2.5562,2.5555,2.5544,2.5539,2.5527,2.5516,2.5508,2.5505,2.5511,2.5512,2.5508,2.5505,2.5503,2.5502,2.5555,2.5513,2.5513,2.5513,2.5514,2.5514,2.5555,2.5546,2.5545,2.5537,2.5535,2.5531,2.5523,2.5524,2.5516,2.5507,2.5512,2.5499,2.5495,2.5484,2.5481,2.547,2.5476,2.547,2.5469,2.5467,2.5464,2.5507,2.5469,2.5469,2.5469,2.5469,2.5469,0,2.5515,2.5515,2.5508,2.5502,2.5496,2.5504,2.55,2.5494,2.5483,2.548,2.5472,2.546,2.545,2.5449,2.5439,2.5431,2.5433,2.5428,2.5428,2.5427,2.546,2.5464,2.5426,2.5426,2.5426,2.5426,2.5426,2.5426,2.5493,2.5479,2.5482,2.5466,2.5465,2.5454,2.5451,2.5447,2.5444,2.5431,2.5423,2.5423,2.542,2.541,2.5401,2.54,2.5396,2.5389,2.5389,2.542,2.5424,2.5428,2.5432,2.5388,2.5388,2.5357,2.5357,2.5356]}]]